Location: Newark
(31.8769°N, 91.1411°W)
Time: 00:03:42
(UTC+00:00)

N. Korean satellite - Pass Details

Date: 28 January 2020
Orbit: 456 x 505 km, 97.2° (Epoch: 27 February)

Event Time Altitude Azimuth Distance (km) Brightness Sun altitude
Rises 10:47:34 0° 37° (NE) 2,559 10.6 -28.3°
Reaches altitude 10° 10:50:42 10° 68° (ENE) 1,685 10.1 -27.6°
Maximum altitude 10:52:18 12° 94° (E) 1,538 10.0 -27.3°
Drops below altitude 10° 10:53:54 10° 120° (ESE) 1,690 10.1 -26.9°
Sets 10:57:03 0° 151° (SSE) 2,576 10.7 -26.3°
